Satellite: AUBIESAT
Catalog number: 37854
Epoch time: 12263.80656351
Element set: 0293
Inclination: 101.7129 deg
RA of node: 347.4709 deg
Eccentricity: 0.0245291
Arg of perigee: 080.2923 deg
Mean anomaly: 282.5886 deg
Mean motion: 14.81244898 rev/day
Decay rate: 4.177e-05 rev/day^2
Epoch rev: 04839
Checksum: 330
Satellite: HRBE
Catalog number: 37855
Epoch time: 12264.84388356
Element set: 287
Inclination: 101.7109 deg
RA of node: 348.9029 deg
Eccentricity: 0.0245580
Arg of perigee: 077.4359 deg
Mean anomaly: 285.4194 deg
Mean motion: 14.81070037 rev/day
Decay rate: 4.292e-05 rev/day^2
Epoch rev: 4854
Checksum: 328
Satellite: RS-39
Catalog number: 38051
Epoch time: 12264.75216435
Element set: 719
Inclination: 051.6350 deg
RA of node: 063.9490 deg
Eccentricity: 0.0012697
Arg of perigee: 021.9004 deg
Mean anomaly: 172.4553 deg
Mean motion: 15.25802038 rev/day
Decay rate: 7.605e-05 rev/day^2
Epoch rev: 3655
Checksum: 293
Satellite: E-STAR
Catalog number: 38079
Epoch time: 12264.69805543
Element set: 518
Inclination: 069.4784 deg
RA of node: 096.4579 deg
Eccentricity: 0.0714419
Arg of perigee: 126.8899 deg
Mean anomaly: 239.9906 deg
Mean motion: 14.21079701 rev/day
Decay rate: 4.7145e-04 rev/day^2
Epoch rev: 3112
Checksum: 349
Satellite: GOLIAT
Catalog number: 38085
Epoch time: 12264.68893897
Element set: 486
Inclination: 069.4848 deg
RA of node: 097.0943 deg
Eccentricity: 0.0719741
Arg of perigee: 127.4545 deg
Mean anomaly: 239.4886 deg
Mean motion: 14.19940247 rev/day
Decay rate: 4.4637e-04 rev/day^2
Epoch rev: 3110
Checksum: 360
Satellite: HORYU-2
Catalog number: 38340
Epoch time: 12264.32131936
Element set: 155
Inclination: 098.1820 deg
RA of node: 204.3011 deg
Eccentricity: 0.0013572
Arg of perigee: 033.3053 deg
Mean anomaly: 326.9021 deg
Mean motion: 14.70175830 rev/day
Decay rate: 8.83e-06 rev/day^2
Epoch rev: 1845
Checksum: 254
Satellite: RS-40
Catalog number: 38736
Epoch time: 12264.71441186
Element set: 57
Inclination: 082.4812 deg
RA of node: 323.1480 deg
Eccentricity: 0.0018548
Arg of perigee: 192.1221 deg
Mean anomaly: 167.9424 deg
Mean motion: 12.42646496 rev/day
Decay rate: 1.0e-07 rev/day^2
Epoch rev: 677
Checksum: 289
Satellite: PROITERES
Catalog number: 38756
Epoch time: 12264.76510160
Element set: 47
Inclination: 098.2853 deg
RA of node: 330.4851 deg
Eccentricity: 0.0011542
Arg of perigee: 242.2842 deg
Mean anomaly: 117.7196 deg
Mean motion: 14.73874215 rev/day
Decay rate: 3.02e-06 rev/day^2
Epoch rev: 170
Checksum: 273
Satellite: AENEAS
Catalog number: 38760
Epoch time: 12263.51384741
Element set: 0012
Inclination: 064.6718 deg
RA of node: 023.4550 deg
Eccentricity: 0.0219105
Arg of perigee: 287.6245 deg
Mean anomaly: 175.2963 deg
Mean motion: 14.79106966 rev/day
Decay rate: 1.219e-05 rev/day^2
Epoch rev: 00081
Checksum: 289
Satellite: CSSWE
Catalog number: 38761
Epoch time: 12261.82383910
Element set: 0010
Inclination: 064.6714 deg
RA of node: 028.6390 deg
Eccentricity: 0.0218654
Arg of perigee: 288.2530 deg
Mean anomaly: 172.9518 deg
Mean motion: 14.78858418 rev/day
Decay rate: 1.382e-05 rev/day^2
Epoch rev: 00056
Checksum: 302
Satellite: CP5
Catalog number: 38763
Epoch time: 12258.03722222
Element set: 000
Inclination: 66.2600 deg
RA of node: 30.4300 deg
Eccentricity: 0.0202000
Arg of perigee: 308.7900 deg
Mean anomaly: 155.8234 deg
Mean motion: 14.79897280 rev/day
Decay rate: 0.00000000 rev/day^2
Epoch rev: 00000
Checksum: 216
/EX
More information about the Keps
mailing list